Time,TemperatureF,DewpointF,PressureIn,WindDirection,WindDirectionDegrees,WindSpeedMPH,WindSpeedGustMPH,Humidity,HourlyPrecipIn,Conditions,Clouds,dailyrainin,SoftwareType,DateUTC
2013-03-01 00:08:00,49.9,-99.9,30.43,ENE,57,3.0,-999.0,0,-99.99,,,0.00,weatherlink.com 1.10,2013-03-01 08:08:00,
2013-03-01 00:23:00,49.6,-99.9,30.43,NE,50,4.0,-999.0,0,-99.99,,,0.00,weatherlink.com 1.10,2013-03-01 08:23:00,
2013-03-01 00:38:00,49.0,-99.9,30.42,ENE,61,5.0,-999.0,0,-99.99,,,0.00,weatherlink.com 1.10,2013-03-01 08:38:00,
2013-03-01 00:53:00,48.7,-99.9,30.43,ENE,57,6.0,-999.0,0,-99.99,,,0.00,weatherlink.com 1.10,2013-03-01 08:53:00,
2013-03-01 01:08:00,49.0,-99.9,30.42,NE,56,5.0,-999.0,0,-99.99,,,0.00,weatherlink.com 1.10,2013-03-01 09:08:00,
2013-03-01 01:23:00,48.9,-99.9,30.43,NE,53,4.0,-999.0,0,-99.99,,,0.00,weatherlink.com 1.10,2013-03-01 09:23:00,
2013-03-01 01:38:00,48.3,-99.9,30.44,ENE,62,3.0,-999.0,0,-99.99,,,0.00,weatherlink.com 1.10,2013-03-01 09:38:00,
2013-03-01 01:53:00,48.2,-99.9,30.43,ENE,61,5.0,-999.0,0,-99.99,,,0.00,weatherlink.com 1.10,2013-03-01 09:53:00,
2013-03-01 02:08:00,47.9,-99.9,30.44,ENE,67,3.0,-999.0,0,-99.99,,,0.00,weatherlink.com 1.10,2013-03-01 10:08:00,
2013-03-01 02:23:00,47.4,-99.9,30.43,ENE,62,5.0,-999.0,0,-99.99,,,0.00,weatherlink.com 1.10,2013-03-01 10:23:00,
2013-03-01 02:38:00,48.1,-99.9,30.43,NE,48,0.0,-999.0,0,-99.99,,,0.00,weatherlink.com 1.10,2013-03-01 10:38:00,
2013-03-01 02:53:00,46.4,-99.9,30.44,ENE,65,4.0,-999.0,0,-99.99,,,0.00,weatherlink.com 1.10,2013-03-01 10:53:00,
2013-03-01 03:08:00,46.9,-99.9,30.43,NE,54,3.0,-999.0,0,-99.99,,,0.00,weatherlink.com 1.10,2013-03-01 11:08:00,
2013-03-01 03:23:00,47.7,-99.9,30.43,ENE,59,0.0,-999.0,0,-99.99,,,0.00,weatherlink.com 1.10,2013-03-01 11:23:00,
2013-03-01 03:38:00,48.0,-99.9,30.43,ENE,68,3.0,-999.0,0,-99.99,,,0.00,weatherlink.com 1.10,2013-03-01 11:38:00,
2013-03-01 03:53:00,48.8,-99.9,30.43,NNE,24,6.0,-999.0,0,-99.99,,,0.00,weatherlink.com 1.10,2013-03-01 11:53:00,
2013-03-01 04:08:00,48.8,-99.9,30.42,NE,49,5.0,-999.0,0,-99.99,,,0.00,weatherlink.com 1.10,2013-03-01 12:08:00,
2013-03-01 04:23:00,48.4,-99.9,30.41,ENE,67,4.0,-999.0,0,-99.99,,,0.00,weatherlink.com 1.10,2013-03-01 12:23:00,
2013-03-01 04:38:00,48.0,-99.9,30.41,ENE,66,6.0,-999.0,0,-99.99,,,0.00,weatherlink.com 1.10,2013-03-01 12:38:00,
2013-03-01 04:53:00,47.9,-99.9,30.41,NE,40,2.0,-999.0,0,-99.99,,,0.00,weatherlink.com 1.10,2013-03-01 12:53:00,
2013-03-01 05:08:00,46.8,-99.9,30.41,NE,48,1.0,-999.0,0,-99.99,,,0.00,weatherlink.com 1.10,2013-03-01 13:08:00,
2013-03-01 05:23:00,46.7,-99.9,30.40,NE,55,1.0,-999.0,0,-99.99,,,0.00,weatherlink.com 1.10,2013-03-01 13:23:00,
2013-03-01 05:38:00,47.0,-99.9,30.40,NE,55,0.0,-999.0,0,-99.99,,,0.00,weatherlink.com 1.10,2013-03-01 13:38:00,
2013-03-01 05:53:00,48.3,-99.9,30.39,NE,54,4.0,-999.0,0,-99.99,,,0.00,weatherlink.com 1.10,2013-03-01 13:53:00,
2013-03-01 06:08:00,48.6,-99.9,30.39,NE,44,1.0,-999.0,0,-99.99,,,0.00,weatherlink.com 1.10,2013-03-01 14:08:00,
2013-03-01 06:23:00,48.8,-99.9,30.38,NE,44,0.0,-999.0,0,-99.99,,,0.00,weatherlink.com 1.10,2013-03-01 14:23:00,
2013-03-01 06:38:00,48.6,-99.9,30.39,NE,44,2.0,-999.0,0,-99.99,,,0.00,weatherlink.com 1.10,2013-03-01 14:38:00,
2013-03-01 06:53:00,48.0,-99.9,30.38,ENE,58,1.0,-999.0,0,-99.99,,,0.00,weatherlink.com 1.10,2013-03-01 14:53:00,
2013-03-01 07:08:00,46.8,-99.9,30.37,ENE,59,7.0,-999.0,0,-99.99,,,0.00,weatherlink.com 1.10,2013-03-01 15:08:00,
2013-03-01 07:23:00,45.6,-99.9,30.37,ENE,67,4.0,-999.0,0,-99.99,,,0.00,weatherlink.com 1.10,2013-03-01 15:23:00,
2013-03-01 07:38:00,46.8,-99.9,30.38,NE,55,2.0,-999.0,0,-99.99,,,0.00,weatherlink.com 1.10,2013-03-01 15:38:00,
2013-03-01 08:08:00,48.6,-99.9,30.39,ENE,59,5.0,-999.0,0,-99.99,,,0.00,weatherlink.com 1.10,2013-03-01 16:08:00,
2013-03-01 08:23:00,49.9,-99.9,30.39,ENE,58,3.0,-999.0,0,-99.99,,,0.00,weatherlink.com 1.10,2013-03-01 16:23:00,
2013-03-01 08:38:00,51.0,-99.9,30.39,NE,49,5.0,-999.0,0,-99.99,,,0.00,weatherlink.com 1.10,2013-03-01 16:38:00,
2013-03-01 08:53:00,52.8,-99.9,30.39,NE,49,3.0,-999.0,0,-99.99,,,0.00,weatherlink.com 1.10,2013-03-01 16:53:00,
2013-03-01 09:08:00,54.8,-99.9,30.40,NNW,337,0.0,-999.0,0,-99.99,,,0.00,weatherlink.com 1.10,2013-03-01 17:08:00,
2013-03-01 09:23:00,56.0,-99.9,30.39,NNW,337,0.0,-999.0,0,-99.99,,,0.00,weatherlink.com 1.10,2013-03-01 17:23:00,
2013-03-01 09:38:00,57.6,-99.9,30.38,NNW,337,0.0,-999.0,0,-99.99,,,0.00,weatherlink.com 1.10,2013-03-01 17:38:00,
2013-03-01 09:53:00,60.7,-99.9,30.38,WSW,250,0.0,-999.0,0,-99.99,,,0.00,weatherlink.com 1.10,2013-03-01 17:53:00,
2013-03-01 10:08:00,60.8,-99.9,30.38,WSW,240,4.0,-999.0,0,-99.99,,,0.00,weatherlink.com 1.10,2013-03-01 18:08:00,
2013-03-01 10:23:00,60.4,-99.9,30.39,WSW,239,3.0,-999.0,0,-99.99,,,0.00,weatherlink.com 1.10,2013-03-01 18:23:00,
2013-03-01 10:38:00,59.1,-99.9,30.38,SSW,213,0.0,-999.0,0,-99.99,,,0.00,weatherlink.com 1.10,2013-03-01 18:38:00,
2013-03-01 10:53:00,61.0,-99.9,30.38,WSW,247,1.0,-999.0,0,-99.99,,,0.00,weatherlink.com 1.10,2013-03-01 18:53:00,
2013-03-01 11:08:00,62.2,-6.0,30.37,WSW,242,0.0,-999.0,6,-99.99,,,0.00,weatherlink.com 1.10,2013-03-01 19:08:00,
2013-03-01 11:23:00,63.0,-9.0,30.37,SW,232,1.0,-999.0,5,-99.99,,,0.00,weatherlink.com 1.10,2013-03-01 19:23:00,
2013-03-01 11:38:00,62.5,15.0,30.38,WSW,246,3.0,-999.0,16,-99.99,,,0.00,weatherlink.com 1.10,2013-03-01 19:38:00,
2013-03-01 11:53:00,60.0,-8.0,30.37,WSW,244,4.0,-999.0,6,-99.99,,,0.00,weatherlink.com 1.10,2013-03-01 19:53:00,
2013-03-01 12:08:00,60.1,-99.9,30.37,West,269,2.0,-999.0,-999,-99.99,,,0.00,weatherlink.com 1.10,2013-03-01 20:08:00,
2013-03-01 12:23:00,60.6,-4.0,30.36,SW,215,3.0,-999.0,7,-99.99,,,0.00,weatherlink.com 1.10,2013-03-01 20:23:00,
2013-03-01 12:38:00,60.4,-99.9,30.35,West,277,3.0,-999.0,0,-99.99,,,0.00,weatherlink.com 1.10,2013-03-01 20:38:00,
2013-03-01 12:53:00,61.0,-21.0,30.35,WSW,245,0.0,-999.0,3,-99.99,,,0.00,weatherlink.com 1.10,2013-03-01 20:53:00,
2013-03-01 13:08:00,60.8,1.0,30.34,SSW,193,4.0,-999.0,9,-99.99,,,0.00,weatherlink.com 1.10,2013-03-01 21:08:00,
2013-03-01 13:23:00,61.1,-29.0,30.33,WNW,284,2.0,-999.0,2,-99.99,,,0.00,weatherlink.com 1.10,2013-03-01 21:23:00,
2013-03-01 13:38:00,61.7,10.0,30.32,SW,229,3.0,-999.0,13,-99.99,,,0.00,weatherlink.com 1.10,2013-03-01 21:38:00,
2013-03-01 13:53:00,59.6,-16.0,30.31,SW,235,1.0,-999.0,4,-99.99,,,0.00,weatherlink.com 1.10,2013-03-01 21:53:00,
2013-03-01 14:08:00,60.2,-11.0,30.30,SSW,195,2.0,-999.0,5,-99.99,,,0.00,weatherlink.com 1.10,2013-03-01 22:08:00,
2013-03-01 14:23:00,60.3,-16.0,30.29,SW,221,5.0,-999.0,4,-99.99,,,0.00,weatherlink.com 1.10,2013-03-01 22:23:00,
2013-03-01 14:38:00,59.9,-99.9,30.29,SSW,213,3.0,-999.0,0,-99.99,,,0.00,weatherlink.com 1.10,2013-03-01 22:38:00,
2013-03-01 14:53:00,60.1,-22.0,30.29,SW,233,1.0,-999.0,3,-99.99,,,0.00,weatherlink.com 1.10,2013-03-01 22:53:00,
2013-03-01 15:08:00,60.2,-8.0,30.28,SSW,198,2.0,-999.0,6,-99.99,,,0.00,weatherlink.com 1.10,2013-03-01 23:08:00,
2013-03-01 15:23:00,58.0,-99.9,30.27,SW,220,2.0,-999.0,0,-99.99,,,0.00,weatherlink.com 1.10,2013-03-01 23:23:00,
2013-03-01 15:38:00,60.1,-42.0,30.27,SW,227,2.0,-999.0,1,-99.99,,,0.00,weatherlink.com 1.10,2013-03-01 23:38:00,
2013-03-01 15:53:00,60.3,-5.0,30.26,SW,232,0.0,-999.0,7,-99.99,,,0.00,weatherlink.com 1.10,2013-03-01 23:53:00,
2013-03-01 16:08:00,58.3,-99.9,30.26,SW,226,4.0,-999.0,0,-99.99,,,0.00,weatherlink.com 1.10,2013-03-02 00:08:00,
2013-03-01 16:23:00,57.7,-99.9,30.26,SW,227,3.0,-999.0,0,-99.99,,,0.00,weatherlink.com 1.10,2013-03-02 00:23:00,
2013-03-01 16:38:00,57.0,-99.9,30.25,SSW,206,3.0,-999.0,0,-99.99,,,0.00,weatherlink.com 1.10,2013-03-02 00:38:00,
2013-03-01 16:53:00,57.4,-99.9,30.25,SSW,200,2.0,-999.0,0,-99.99,,,0.00,weatherlink.com 1.10,2013-03-02 00:53:00,
2013-03-01 17:08:00,56.5,-99.9,30.25,SSW,208,0.0,-999.0,0,-99.99,,,0.00,weatherlink.com 1.10,2013-03-02 01:08:00,
2013-03-01 17:23:00,56.3,-99.9,30.24,SSW,208,0.0,-999.0,0,-99.99,,,0.00,weatherlink.com 1.10,2013-03-02 01:23:00,
2013-03-01 17:38:00,56.1,-99.9,30.24,SSW,208,0.0,-999.0,0,-99.99,,,0.00,weatherlink.com 1.10,2013-03-02 01:38:00,
2013-03-01 17:53:00,55.1,-99.9,30.25,SSW,208,0.0,-999.0,0,-99.99,,,0.00,weatherlink.com 1.10,2013-03-02 01:53:00,
2013-03-01 18:08:00,54.0,-99.9,30.25,SSW,208,0.0,-999.0,0,-99.99,,,0.00,weatherlink.com 1.10,2013-03-02 02:08:00,
2013-03-01 18:23:00,52.4,-99.9,30.25,SE,138,0.0,-999.0,0,-99.99,,,0.00,weatherlink.com 1.10,2013-03-02 02:23:00,
2013-03-01 18:38:00,52.1,-99.9,30.25,ESE,115,0.0,-999.0,0,-99.99,,,0.00,weatherlink.com 1.10,2013-03-02 02:38:00,
2013-03-01 18:53:00,53.1,-99.9,30.25,NE,52,4.0,-999.0,0,-99.99,,,0.00,weatherlink.com 1.10,2013-03-02 02:53:00,
2013-03-01 19:08:00,52.9,-99.9,30.25,ENE,65,7.0,-999.0,0,-99.99,,,0.00,weatherlink.com 1.10,2013-03-02 03:08:00,
2013-03-01 19:23:00,52.3,-99.9,30.26,NE,55,5.0,-999.0,0,-99.99,,,0.00,weatherlink.com 1.10,2013-03-02 03:23:00,
2013-03-01 19:38:00,51.8,-99.9,30.26,NE,56,5.0,-999.0,0,-99.99,,,0.00,weatherlink.com 1.10,2013-03-02 03:38:00,
2013-03-01 19:53:00,51.0,-99.9,30.27,ENE,67,2.0,-999.0,0,-99.99,,,0.00,weatherlink.com 1.10,2013-03-02 03:53:00,
2013-03-01 20:08:00,50.5,-99.9,30.27,ENE,59,4.0,-999.0,0,-99.99,,,0.00,weatherlink.com 1.10,2013-03-02 04:08:00,
2013-03-01 20:23:00,50.2,-99.9,30.26,ENE,71,2.0,-999.0,0,-99.99,,,0.00,weatherlink.com 1.10,2013-03-02 04:23:00,
2013-03-01 20:38:00,50.0,-99.9,30.26,NE,52,2.0,-999.0,0,-99.99,,,0.00,weatherlink.com 1.10,2013-03-02 04:38:00,
2013-03-01 20:53:00,49.9,-99.9,30.25,NE,51,4.0,-999.0,0,-99.99,,,0.00,weatherlink.com 1.10,2013-03-02 04:53:00,
2013-03-01 21:08:00,50.3,-99.9,30.25,ENE,61,6.0,-999.0,0,-99.99,,,0.00,weatherlink.com 1.10,2013-03-02 05:08:00,
2013-03-01 21:23:00,49.7,-99.9,30.26,NNE,31,2.0,-999.0,0,-99.99,,,0.00,weatherlink.com 1.10,2013-03-02 05:23:00,
2013-03-01 21:38:00,49.4,-99.9,30.25,NE,56,3.0,-999.0,0,-99.99,,,0.00,weatherlink.com 1.10,2013-03-02 05:38:00,
2013-03-01 21:53:00,48.9,-99.9,30.26,ENE,69,2.0,-999.0,0,-99.99,,,0.00,weatherlink.com 1.10,2013-03-02 05:53:00,
2013-03-01 22:08:00,48.3,-99.9,30.27,East,88,0.0,-999.0,0,-99.99,,,0.00,weatherlink.com 1.10,2013-03-02 06:08:00,
2013-03-01 22:23:00,48.1,-99.9,30.26,ENE,71,0.0,-999.0,0,-99.99,,,0.00,weatherlink.com 1.10,2013-03-02 06:23:00,
2013-03-01 22:38:00,48.3,-99.9,30.26,NE,51,6.0,-999.0,0,-99.99,,,0.00,weatherlink.com 1.10,2013-03-02 06:38:00,
2013-03-01 22:53:00,48.2,-99.9,30.25,ENE,58,4.0,-999.0,0,-99.99,,,0.00,weatherlink.com 1.10,2013-03-02 06:53:00,
2013-03-01 23:08:00,47.5,-99.9,30.25,ENE,69,4.0,-999.0,0,-99.99,,,0.00,weatherlink.com 1.10,2013-03-02 07:08:00,
2013-03-01 23:23:00,47.2,-99.9,30.26,NNE,33,2.0,-999.0,0,-99.99,,,0.00,weatherlink.com 1.10,2013-03-02 07:23:00,
2013-03-01 23:38:00,46.8,-99.9,30.26,NNE,33,3.0,-999.0,0,-99.99,,,0.00,weatherlink.com 1.10,2013-03-02 07:38:00,
2013-03-01 23:53:00,47.3,-99.9,30.25,ENE,57,5.0,-999.0,0,-99.99,,,0.00,weatherlink.com 1.10,2013-03-02 07:53:00,